When you browse on this site, cookies collect data to enhance your experience and personalize the content and advertising you see.
Visit our Privacy Policy to learn more. By continuing to use the site, you agree to this use of cookies and data.
  • In Romania
  • List of Countries
  • For 7 days
  • Water Temperature
  • Satellite Maps
  • Weather Map
  • Weather Widgets
  • user-avatar
    Login

    Hourly Weather Sidi Bu-l-Abbas

    Today, 24 March, Sunday

    Time Temperature Precipitation Wind Pressure Humidity
    00:00 +10°C° 0 mm 2 mps 721 mmHg 74%
    01:00 +12°C° 0 mm 2 mps 721 mmHg 67%
    02:00 +12°C° 0 mm 2 mps 721 mmHg 59%
    03:00 +13°C° 0 mm 2 mps 721 mmHg 52%
    04:00 +13°C° 0 mm 2 mps 721 mmHg 52%
    05:00 +12°C° 0 mm 2 mps 721 mmHg 52%
    06:00 +12°C° 0 mm 2 mps 721 mmHg 53%
    07:00 +13°C° 0 mm 3 mps 721 mmHg 48%
    08:00 +16°C° 0 mm 3 mps 722 mmHg 44%
    09:00 +18°C° 0 mm 4 mps 722 mmHg 40%
    10:00 +17°C° 0.1 mm 5 mps 723 mmHg 41%
    11:00 +19°C° 0.1 mm 6 mps 723 mmHg 42%
    12:00 +18°C° 0.1 mm 7 mps 723 mmHg 44%
    13:00 +17°C° 0.4 mm 6 mps 722 mmHg 48%
    14:00 +16°C° 0.4 mm 5 mps 722 mmHg 52%
    15:00 +15°C° 0.4 mm 5 mps 721 mmHg 57%
    16:00 +15°C° 0.3 mm 5 mps 721 mmHg 59%
    17:00 +15°C° 0.3 mm 5 mps 721 mmHg 61%
    18:00 +14°C° 0.3 mm 5 mps 720 mmHg 63%
    19:00 +14°C° 0 mm 5 mps 721 mmHg 62%
    20:00 +13°C° 0 mm 4 mps 721 mmHg 61%
    21:00 +13°C° 0 mm 4 mps 721 mmHg 59%
    22:00 +13°C° 0 mm 4 mps 721 mmHg 58%
    23:00 +13°C° 0 mm 4 mps 721 mmHg 56%

    Tomorrow, 25 March, Monday

    Time Temperature Precipitation Wind Pressure Humidity
    00:00 +13°C° 0 mm 4 mps 721 mmHg 54%
    01:00 +13°C° 0 mm 3 mps 721 mmHg 55%
    02:00 +12°C° 0 mm 3 mps 720 mmHg 56%
    03:00 +13°C° 0 mm 2 mps 720 mmHg 57%
    04:00 +12°C° 0 mm 2 mps 720 mmHg 58%
    05:00 +12°C° 0 mm 2 mps 720 mmHg 58%
    06:00 +10°C° 0 mm 2 mps 720 mmHg 58%
    07:00 +14°C° 0 mm 2 mps 720 mmHg 52%
    08:00 +16°C° 0 mm 2 mps 721 mmHg 45%
    09:00 +19°C° 0 mm 2 mps 721 mmHg 38%
    10:00 +20°C° 0 mm 3 mps 721 mmHg 35%
    11:00 +22°C° 0 mm 3 mps 721 mmHg 31%
    12:00 +25°C° 0 mm 3 mps 721 mmHg 28%
    13:00 +25°C° 0 mm 4 mps 720 mmHg 29%
    14:00 +25°C° 0 mm 4 mps 720 mmHg 29%
    15:00 +26°C° 0 mm 5 mps 719 mmHg 30%
    16:00 +23°C° 0 mm 4 mps 719 mmHg 36%
    17:00 +21°C° 0 mm 4 mps 719 mmHg 43%
    18:00 +19°C° 0 mm 3 mps 718 mmHg 49%
    19:00 +18°C° 0 mm 3 mps 719 mmHg 52%
    20:00 +18°C° 0 mm 2 mps 719 mmHg 54%
    21:00 +17°C° 0 mm 2 mps 719 mmHg 56%
    22:00 +16°C° 0 mm 2 mps 719 mmHg 57%
    23:00 +16°C° 0 mm 2 mps 719 mmHg 58%

    Day after tomorrow, 26 March, Tuesday

    Time Temperature Precipitation Wind Pressure Humidity
    00:00 +15°C° 0 mm 2 mps 718 mmHg 58%
    01:00 +15°C° 0 mm 2 mps 718 mmHg 59%
    02:00 +14°C° 0 mm 2 mps 718 mmHg 59%
    03:00 +14°C° 0 mm 1 mps 717 mmHg 60%
    04:00 +14°C° 0 mm 1 mps 718 mmHg 58%
    05:00 +14°C° 0 mm 1 mps 718 mmHg 57%
    06:00 +14°C° 0 mm 2 mps 718 mmHg 56%
    07:00 +15°C° 0.3 mm 2 mps 718 mmHg 55%
    08:00 +16°C° 0.3 mm 2 mps 719 mmHg 55%
    09:00 +17°C° 0.3 mm 2 mps 719 mmHg 55%
    10:00 +18°C° 0.1 mm 3 mps 719 mmHg 51%
    11:00 +19°C° 0.1 mm 4 mps 719 mmHg 48%
    12:00 +20°C° 0.1 mm 4 mps 719 mmHg 44%
    13:00 +22°C° 0 mm 6 mps 719 mmHg 40%
    14:00 +23°C° 0 mm 7 mps 718 mmHg 36%
    15:00 +24°C° 0 mm 9 mps 717 mmHg 32%
    16:00 +23°C° 0 mm 9 mps 717 mmHg 39%
    17:00 +21°C° 0 mm 9 mps 717 mmHg 46%
    18:00 +18°C° 0 mm 9 mps 717 mmHg 53%
    19:00 +17°C° 0 mm 8 mps 717 mmHg 58%
    20:00 +16°C° 0 mm 7 mps 718 mmHg 63%
    21:00 +14°C° 0 mm 6 mps 718 mmHg 69%
    22:00 +14°C° 0 mm 5 mps 718 mmHg 68%
    23:00 +13°C° 0 mm 5 mps 718 mmHg 67%

    27 March, Wednesday

    Time Temperature Precipitation Wind Pressure Humidity
    00:00 +13°C° 0 mm 4 mps 718 mmHg 67%
    01:00 +12°C° 0.1 mm 4 mps 718 mmHg 67%
    02:00 +12°C° 0.1 mm 3 mps 718 mmHg 68%
    03:00 +11°C° 0.1 mm 3 mps 718 mmHg 68%
    04:00 +11°C° 0.6 mm 3 mps 718 mmHg 73%
    05:00 +11°C° 0.6 mm 4 mps 718 mmHg 77%
    06:00 +11°C° 0.6 mm 4 mps 718 mmHg 82%
    07:00 +11°C° 0.3 mm 4 mps 718 mmHg 79%
    08:00 +12°C° 0.3 mm 5 mps 719 mmHg 75%
    09:00 +13°C° 0.3 mm 5 mps 719 mmHg 72%
    10:00 +14°C° 0.4 mm 5 mps 719 mmHg 67%
    11:00 +15°C° 0.4 mm 6 mps 719 mmHg 62%
    12:00 +16°C° 0.4 mm 6 mps 719 mmHg 58%
    13:00 +16°C° 0.6 mm 7 mps 719 mmHg 56%
    14:00 +16°C° 0.6 mm 7 mps 719 mmHg 55%
    15:00 +16°C° 0.6 mm 8 mps 719 mmHg 54%
    16:00 +15°C° 0.1 mm 7 mps 719 mmHg 56%
    17:00 +14°C° 0.1 mm 6 mps 720 mmHg 58%
    18:00 +13°C° 0.1 mm 6 mps 720 mmHg 60%
    19:00 +12°C° 0.6 mm 5 mps 720 mmHg 67%
    20:00 +11°C° 0.6 mm 4 mps 721 mmHg 73%
    21:00 +10°C° 0.6 mm 3 mps 721 mmHg 79%
    22:00 +10°C° 1.2 mm 2 mps 721 mmHg 83%
    23:00 +10°C° 1.2 mm 2 mps 722 mmHg 86%

    28 March, Thursday

    Time Temperature Precipitation Wind Pressure Humidity
    00:00 +10°C° 1.2 mm 1 mps 722 mmHg 89%
    01:00 +10°C° 0 mm 1 mps 721 mmHg 90%
    02:00 +9°C° 0 mm 1 mps 721 mmHg 91%
    03:00 +8°C° 0 mm 0 mps 721 mmHg 92%
    04:00 +8°C° 0 mm 0 mps 721 mmHg 91%
    05:00 +8°C° 0 mm 0 mps 722 mmHg 90%
    06:00 +8°C° 0 mm 0 mps 722 mmHg 89%
    07:00 +10°C° 0 mm 1 mps 722 mmHg 84%
    08:00 +11°C° 0 mm 1 mps 723 mmHg 79%
    09:00 +12°C° 0 mm 2 mps 723 mmHg 74%
    10:00 +14°C° 0 mm 2 mps 723 mmHg 67%
    11:00 +16°C° 0 mm 3 mps 723 mmHg 59%
    12:00 +18°C° 0 mm 3 mps 723 mmHg 52%
    13:00 +19°C° 0 mm 4 mps 723 mmHg 50%
    14:00 +19°C° 0 mm 4 mps 723 mmHg 49%
    15:00 +20°C° 0 mm 5 mps 722 mmHg 47%
    16:00 +17°C° 0 mm 5 mps 722 mmHg 53%
    17:00 +16°C° 0 mm 5 mps 722 mmHg 58%
    18:00 +15°C° 0 mm 4 mps 722 mmHg 63%
    19:00 +14°C° 0 mm 3 mps 722 mmHg 70%
    20:00 +13°C° 0 mm 2 mps 723 mmHg 77%
    21:00 +12°C° 0 mm 1 mps 723 mmHg 84%
    22:00 +11°C° 0 mm 1 mps 723 mmHg 87%
    23:00 +11°C° 0 mm 1 mps 723 mmHg 89%

    29 March, Friday

    Time Temperature Precipitation Wind Pressure Humidity
    00:00 +9°C° 0 mm 0 mps 723 mmHg 92%
    01:00 +9°C° 0.1 mm 0 mps 723 mmHg 93%
    02:00 +9°C° 0.1 mm 0 mps 722 mmHg 94%
    03:00 +9°C° 0.1 mm 0 mps 722 mmHg 95%
    04:00 +8°C° 0 mm 0 mps 722 mmHg 95%
    05:00 +8°C° 0 mm 0 mps 722 mmHg 95%
    06:00 +8°C° 0 mm 0 mps 723 mmHg 96%
    07:00 +11°C° 0 mm 1 mps 723 mmHg 89%
    08:00 +13°C° 0 mm 1 mps 723 mmHg 82%
    09:00 +14°C° 0 mm 1 mps 724 mmHg 75%
    10:00 +16°C° 0 mm 2 mps 724 mmHg 69%
    11:00 +18°C° 0 mm 2 mps 724 mmHg 63%
    12:00 +19°C° 0 mm 3 mps 724 mmHg 57%
    13:00 +19°C° 0 mm 4 mps 723 mmHg 56%
    14:00 +20°C° 0 mm 5 mps 723 mmHg 56%
    15:00 +20°C° 0 mm 5 mps 722 mmHg 55%
    16:00 +19°C° 0 mm 5 mps 722 mmHg 60%
    17:00 +17°C° 0 mm 4 mps 722 mmHg 65%
    18:00 +15°C° 0 mm 4 mps 722 mmHg 69%
    19:00 +14°C° 0 mm 3 mps 722 mmHg 73%
    20:00 +14°C° 0 mm 2 mps 722 mmHg 77%
    21:00 +13°C° 0 mm 1 mps 723 mmHg 80%
    22:00 +13°C° 0.2 mm 1 mps 723 mmHg 82%
    23:00 +13°C° 0.2 mm 1 mps 722 mmHg 83%
    Show more